Allentown, PA

7:27 PM EDT on April 23, 2017 (GMT -0400)
Allentown

Weather History for KXLL - January, 2014

Change the Weather History Date:

Saturday, January 18, 2014

  Actual Average (KABE) Record (KABE)
Temperature  
Mean Temperature 26 °F -  
Max Temperature 32 °F 33 °F 63 °F (2006)
Min Temperature 21 °F 17 °F -10 °F (1954)
Degree Days  
Heating Degree Days 38    
Moisture  
Dew Point 19 °F    
Average Humidity 67    
Maximum Humidity 93    
Minimum Humidity 43    
Precipitation  
Precipitation 0.02 in - - ()
Sea Level Pressure  
Sea Level Pressure 29.83 in    
Wind  
Wind Speed 5 mph (West)    
Max Wind Speed 14 mph    
Max Gust Speed 26 mph    
Visibility 9 miles    
Events Snow    
Averages and records for this station are not official NWS values.
T = Trace of Precipitation, MM = Missing Value Source: NWS Daily Summary

Daily Weather History Graph

Daily Weather History Graph

Search for Another Location

Airport or City:

Trip Planner

Search our weather history database for the weather conditions in past years. The results will help you decide how hot, cold, wet, or windy it might be!

Date:

Astronomy

Jan. 18, 2014 Rise Set
Actual Time 7:22 AM EST 5:03 PM EST
Civil Twilight 6:52 AM EST 5:32 PM EST
Nautical Twilight 6:18 AM EST 6:06 PM EST
Astronomical Twilight 5:46 AM EST 6:39 PM EST
Moon 7:43 PM EST (1/18) 8:19 AM EST (1/18)
Length of Visible Light 10h 40m
Length of Day
9h 41m
Waning Gibbous, 94% of the Moon is Illuminated
Jan 18
Waning Gibbous
Jan 24
Last Quarter
Jan 30
New
Feb 6
First Quarter
Feb 14
Full

Hourly Weather History & Observations

Time (EST) Temp. Windchill Dew Point Humidity Pressure Visibility Wind Dir Wind Speed Gust Speed Precip Events Conditions
12:15 AM 32.0 °F - 26.6 °F 80% 29.84 in 10.0 mi Calm Calm - N/A   Clear
12:35 AM 32.0 °F - 26.6 °F 80% 29.84 in 10.0 mi Calm Calm - N/A   Clear
12:55 AM 32.0 °F 28.7 °F 26.6 °F 80% 29.83 in 10.0 mi North 3.5 mph - N/A   Clear
1:15 AM 32.0 °F 27.5 °F 26.6 °F 80% 29.81 in 10.0 mi NE 4.6 mph - N/A   Scattered Clouds
1:35 AM 32.0 °F - 26.6 °F 80% 29.83 in 10.0 mi Calm Calm - N/A   Mostly Cloudy
1:55 AM 32.0 °F 27.5 °F 26.6 °F 80% 29.81 in 10.0 mi NNE 4.6 mph - N/A   Overcast
2:15 AM 32.0 °F - 26.6 °F 80% 29.82 in 10.0 mi Calm Calm - N/A   Overcast
2:35 AM 32.0 °F 28.7 °F 26.6 °F 80% 29.82 in 3.0 mi North 3.5 mph - N/A Snow Light Snow
2:55 AM 32.0 °F 27.5 °F 28.4 °F 87% 29.81 in 4.0 mi North 4.6 mph - N/A Snow Light Snow
3:15 AM 32.0 °F 26.4 °F 28.4 °F 87% 29.80 in 2.5 mi NNE 5.8 mph - N/A Snow Light Snow
3:35 AM 32.0 °F 24.8 °F 28.4 °F 87% 29.78 in 5.0 mi North 8.1 mph - N/A Snow Light Snow
3:55 AM 32.0 °F 27.5 °F 28.4 °F 87% 29.78 in 5.0 mi NNE 4.6 mph - N/A   Haze
4:15 AM 32.0 °F - 28.4 °F 87% 29.78 in 5.0 mi Calm Calm - N/A   Overcast
4:35 AM 32.0 °F - 28.4 °F 87% 29.78 in 5.0 mi Calm Calm - N/A   Overcast
4:55 AM 32.0 °F - 28.4 °F 87% 29.77 in 5.0 mi Calm Calm - N/A   Overcast
5:15 AM 32.0 °F - 28.4 °F 87% 29.76 in 4.0 mi Calm Calm - N/A   Overcast
5:35 AM 32.0 °F 25.6 °F 28.4 °F 87% 29.78 in 1.0 mi West 6.9 mph - N/A Snow Light Snow
5:55 AM 32.0 °F 28.7 °F 30.2 °F 93% 29.77 in 1.0 mi West 3.5 mph - 0.02 in Snow Snow
6:15 AM 32.0 °F 27.5 °F 30.2 °F 93% 29.77 in 2.0 mi West 4.6 mph - N/A Snow Light Snow
6:35 AM 32.0 °F 27.5 °F 30.2 °F 93% 29.77 in 1.8 mi WNW 4.6 mph - N/A Snow Light Snow
6:55 AM 32.0 °F 27.5 °F 30.2 °F 93% 29.78 in 2.5 mi West 4.6 mph - N/A Snow Light Snow
7:15 AM 32.0 °F 28.7 °F 28.4 °F 87% 29.78 in 7.0 mi West 3.5 mph - N/A Snow Light Snow
7:35 AM 32.0 °F 26.4 °F 28.4 °F 87% 29.78 in 10.0 mi West 5.8 mph - N/A   Overcast
7:55 AM 32.0 °F 26.4 °F 28.4 °F 87% 29.78 in 10.0 mi West 5.8 mph - N/A   Overcast
8:15 AM 32.0 °F 26.4 °F 28.4 °F 87% 29.79 in 10.0 mi West 5.8 mph - N/A   Overcast
8:35 AM 32.0 °F 26.4 °F 26.6 °F 80% 29.80 in 10.0 mi West 5.8 mph - N/A   Overcast
8:55 AM 32.0 °F 27.5 °F 26.6 °F 80% 29.81 in 10.0 mi West 4.6 mph - N/A   Overcast
9:15 AM 32.0 °F 24.8 °F 24.8 °F 75% 29.81 in 10.0 mi West 8.1 mph - N/A   Overcast
9:35 AM 32.0 °F 24.8 °F 23.0 °F 69% 29.81 in 10.0 mi WNW 8.1 mph - N/A   Scattered Clouds
9:55 AM 32.0 °F 25.6 °F 23.0 °F 69% 29.81 in 10.0 mi WNW 6.9 mph 10.4 mph N/A   Scattered Clouds
10:15 AM 32.0 °F 24.8 °F 24.8 °F 75% 29.81 in 10.0 mi West 8.1 mph - N/A   Overcast
10:35 AM 32.0 °F 24.2 °F 23.0 °F 69% 29.81 in 10.0 mi WNW 9.2 mph - N/A   Overcast
10:55 AM 32.0 °F 24.8 °F 21.2 °F 64% 29.81 in 10.0 mi WNW 8.1 mph 17.3 mph N/A   Overcast
11:15 AM 32.0 °F 22.1 °F 21.2 °F 64% 29.81 in 10.0 mi West 13.8 mph 25.3 mph N/A   Overcast
11:35 AM 32.0 °F 22.5 °F 21.2 °F 64% 29.80 in 10.0 mi West 12.7 mph 18.4 mph N/A   Overcast
11:55 AM 32.0 °F 24.2 °F 21.2 °F 64% 29.79 in 10.0 mi West 9.2 mph 19.6 mph N/A   Overcast
12:15 PM 32.0 °F 22.5 °F 19.4 °F 60% 29.78 in 10.0 mi West 12.7 mph 18.4 mph N/A   Scattered Clouds
12:35 PM 32.0 °F 22.5 °F 17.6 °F 55% 29.78 in 10.0 mi West 12.7 mph 21.9 mph N/A   Mostly Cloudy
12:55 PM 32.0 °F 22.1 °F 17.6 °F 55% 29.78 in 10.0 mi West 13.8 mph 19.6 mph N/A   Mostly Cloudy
1:15 PM 32.0 °F 23.6 °F 17.6 °F 55% 29.78 in 10.0 mi West 10.4 mph 18.4 mph N/A   Mostly Cloudy
1:35 PM 32.0 °F 23.0 °F 17.6 °F 55% 29.78 in 10.0 mi West 11.5 mph 17.3 mph N/A   Scattered Clouds
1:55 PM 30.2 °F 20.8 °F 15.8 °F 55% 29.79 in 10.0 mi West 11.5 mph 18.4 mph N/A   Mostly Cloudy
2:15 PM 32.0 °F 22.1 °F 15.8 °F 51% 29.80 in 10.0 mi West 13.8 mph 18.4 mph N/A   Overcast
2:35 PM 30.2 °F 20.8 °F 15.8 °F 55% 29.80 in 10.0 mi WNW 11.5 mph 20.7 mph N/A   Overcast
2:55 PM 30.2 °F 21.9 °F 14.0 °F 51% 29.81 in 10.0 mi West 9.2 mph 18.4 mph N/A   Overcast
3:15 PM 28.4 °F 19.7 °F 14.0 °F 55% 29.82 in 10.0 mi WNW 9.2 mph 20.7 mph N/A   Overcast
3:35 PM 28.4 °F 18.5 °F 14.0 °F 55% 29.84 in 10.0 mi West 11.5 mph 17.3 mph N/A   Overcast
3:55 PM 28.4 °F 18.5 °F 12.2 °F 51% 29.85 in 10.0 mi WNW 11.5 mph 26.5 mph N/A   Overcast
4:15 PM 28.4 °F 19.7 °F 12.2 °F 51% 29.86 in 10.0 mi WNW 9.2 mph 17.3 mph N/A   Overcast
4:35 PM 30.2 °F 22.6 °F 10.4 °F 44% 29.86 in 10.0 mi WNW 8.1 mph - N/A   Overcast
4:55 PM 28.4 °F 20.4 °F 10.4 °F 47% 29.86 in 10.0 mi West 8.1 mph - N/A   Mostly Cloudy
5:15 PM 28.4 °F 19.7 °F 8.6 °F 43% 29.86 in 10.0 mi West 9.2 mph - N/A   Scattered Clouds
5:35 PM 26.6 °F 16.2 °F 8.6 °F 47% 29.87 in 10.0 mi West 11.5 mph 17.3 mph N/A   Clear
5:55 PM 26.6 °F 18.2 °F 8.6 °F 47% 29.87 in 10.0 mi West 8.1 mph - N/A   Clear
6:15 PM 26.6 °F 18.2 °F 8.6 °F 47% 29.87 in 10.0 mi West 8.1 mph - N/A   Clear
6:35 PM 26.6 °F 21.2 °F 8.6 °F 47% 29.89 in 10.0 mi WSW 4.6 mph - N/A   Clear
6:55 PM 24.8 °F 16.9 °F 6.8 °F 46% 29.90 in 10.0 mi West 6.9 mph - N/A   Scattered Clouds
7:15 PM 24.8 °F 17.9 °F 8.6 °F 50% 29.89 in 10.0 mi WSW 5.8 mph - N/A   Mostly Cloudy
7:35 PM 24.8 °F 16.9 °F 8.6 °F 50% 29.90 in 10.0 mi SW 6.9 mph - N/A   Overcast
7:55 PM 24.8 °F 17.9 °F 8.6 °F 50% 29.91 in 10.0 mi SW 5.8 mph - N/A   Overcast
8:15 PM 24.8 °F 17.9 °F 8.6 °F 50% 29.90 in 10.0 mi WSW 5.8 mph - N/A   Overcast
8:35 PM 24.8 °F 16.9 °F 8.6 °F 50% 29.90 in 10.0 mi West 6.9 mph - N/A   Overcast
8:55 PM 24.8 °F 17.9 °F 8.6 °F 50% 29.90 in 10.0 mi WSW 5.8 mph - N/A   Mostly Cloudy
9:15 PM 23.0 °F 14.7 °F 8.6 °F 54% 29.90 in 10.0 mi SW 6.9 mph - N/A   Mostly Cloudy
9:35 PM 23.0 °F 15.8 °F 8.6 °F 54% 29.90 in 10.0 mi WSW 5.8 mph - N/A   Mostly Cloudy
9:55 PM 21.2 °F 12.6 °F 8.6 °F 58% 29.90 in 10.0 mi SW 6.9 mph - N/A   Scattered Clouds
10:15 PM 21.2 °F 10.9 °F 8.6 °F 58% 29.91 in 10.0 mi SW 9.2 mph - N/A   Mostly Cloudy
10:35 PM 21.2 °F 10.9 °F 8.6 °F 58% 29.92 in 10.0 mi WSW 9.2 mph - N/A   Mostly Cloudy
10:55 PM 21.2 °F 11.7 °F 8.6 °F 58% 29.92 in 10.0 mi SW 8.1 mph - N/A   Overcast
11:15 PM 21.2 °F 10.1 °F 8.6 °F 58% 29.92 in 10.0 mi WSW 10.4 mph 16.1 mph N/A   Scattered Clouds
11:35 PM 21.2 °F 12.6 °F 8.6 °F 58% 29.91 in 10.0 mi WSW 6.9 mph - N/A   Scattered Clouds
11:55 PM 21.2 °F 13.6 °F 8.6 °F 58% 29.91 in 10.0 mi West 5.8 mph - N/A   Clear